Погода в Нижнем Реутце

Россия / Курская область     51°21′32″N   36°02′14″E
темп.,
°C
ветер,
м/с
пор.,
м/с
влажн.,
%
обл.,
%
осадки,
мм/ч
давл.,
гПа
погр.,
м
16 мая, вс
вс1600:00+12ю22885 0.0 101313
03:00+12ююв228792 0.0 101314
06:00+13ю22859 0.0 101431
09:00+18ююз237017 0.0 1014399
12:00+21ю235977 0.0 10141185
15:00+22ю2351100 0.0 10131934
18:00+22в236424 0.0 1012226
21:00+16св457314 0.0 101256
17 мая, пн
пн1700:00+14св41081100 0.1 1011157
03:00+14всв5119226 0.1 1010209
06:00+15всв5128710 0.0 1009275
09:00+20вюв6147078 0.0 1008470
12:00+23вюв8165969 0.0 10071133
15:00+24юв71163100 0.0 10061248
18:00+22юв7137196 0.0 1006704
21:00+18вюв5148217 0.0 1006323
18 мая, вт
вт1800:00+17юв5128864 0.0 1006262
03:00+15ююв51294100 0.0 1006353
06:00+14ююв5119293 0.0 1006382
09:00+17ююв71081100 0.0 1006812
12:00+17ю6986100 0.2 1006739
15:00+19ююв697777 1.8 10051048
18:00+18ююв6108564 1.5 1005853
21:00+14ююв61491100 3.6 1005446
19 мая, ср
ср1900:00+15ю61097100 1.4 1005630
03:00+12зюз4896100 1.5 1007374
06:00+11юз4896100 0.0 1009438
09:00+13юз57799 0.0 1010775
12:00+17юз796345 0.1 10101675
15:00+18юз7105625 0.1 10102189
18:00+16юз6117289 0.9 1010778
21:00+11зюз3888100 1.3 1012143
20 мая, чт
чт2000:00+9з3394100 0.0 101368
03:00+7зюз35961 0.0 1014100
06:00+8з389443 0.0 1015229
09:00+13з56700 0.0 1015876
12:00+16з456267 0.0 10161374
15:00+18зсз3356100 0.0 10161549
18:00+16ссз4571100 0.0 1017368
21:00+12с2276100 0.0 101814